Weather History for Shreveport, LA

Change the Weather History Date:

Wednesday, January 29, 2014

  Actual Average Record
Temperature  
Mean Temperature 31 °F 48 °F  
Max Temperature 44 °F 58 °F 82 °F (1975)
Min Temperature 18 °F 37 °F 17 °F (1900)
Degree Days  
Heating Degree Days 34 18  
Month to date heating degree days 625 539  
Since 1 July heating degree days 1595 1441  
Cooling Degree Days 0 0  
Month to date cooling degree days 0 0  
Year to date cooling degree days 0 0  
Growing Degree Days 0 (Base 50)    
Moisture  
Dew Point 12 °F    
Average Humidity 51    
Maximum Humidity 77    
Minimum Humidity 24    
Precipitation  
Precipitation 0.00 in 0.15 in 3.49 in (1999)
Month to date precipitation 0.82 3.89  
Year to date precipitation 0.82 3.89  
Snow  
Snow 0.00 in - - ()
Month to date snowfall T  
Since 1 July snowfall T  
Snow Depth 0.00 in    
Sea Level Pressure  
Sea Level Pressure 30.40 in    
Wind  
Wind Speed 5 mph (SE)    
Max Wind Speed 9 mph    
Max Gust Speed 15 mph    
Visibility 10 miles    
Events      
T = Trace of Precipitation, MM = Missing Value Source: NWS Daily Summary

Daily Weather History Graph

Daily Weather History Graph

Search for Another Location

Airport:

Trip Planner

Search our weather history database for the weather conditions in past years. The results will help you decide how hot, cold, wet, or windy it might be!

Date:

Astronomy

Jan. 29, 2014 Rise Set
Actual Time 7:11 AM CST 5:45 PM CST
Civil Twilight 6:45 AM CST 6:11 PM CST
Nautical Twilight 6:16 AM CST 6:41 PM CST
Astronomical Twilight 5:47 AM CST 7:10 PM CST
Moon 5:48 AM CST 4:45 PM CST
Length of Visible Light 11h 26m
Length of Day
10h 34m
Waning Crescent, 2% of the Moon is Illuminated
Jan 29
Waning Crescent
Jan 30
New
Feb 6
First Quarter
Feb 14
Full
Feb 22
Last Quarter

Hourly Weather History & Observations

Time (CST) Temp. Windchill Dew Point Humidity Pressure Visibility Wind Dir Wind Speed Gust Speed Precip Events Conditions
12:56 AM 26.1 °F 21.9 °F 12.0 °F 55% 30.44 in 10.0 mi North 3.5 mph - N/A   Mostly Cloudy
1:56 AM 26.1 °F 21.9 °F 12.0 °F 55% 30.43 in 10.0 mi North 3.5 mph - N/A   Mostly Cloudy
2:56 AM 25.0 °F 20.7 °F 12.0 °F 58% 30.41 in 10.0 mi North 3.5 mph - N/A   Scattered Clouds
3:56 AM 21.0 °F - 12.9 °F 71% 30.44 in 10.0 mi Calm Calm - N/A   Scattered Clouds
4:56 AM 23.0 °F - 12.9 °F 65% 30.44 in 10.0 mi Calm Calm - N/A   Scattered Clouds
5:56 AM 21.0 °F - 12.9 °F 71% 30.44 in 10.0 mi Calm Calm - N/A   Mostly Cloudy
6:56 AM 19.9 °F - 14.0 °F 78% 30.46 in 10.0 mi Calm Calm - N/A   Mostly Cloudy
7:56 AM 21.0 °F - 14.0 °F 74% 30.48 in 10.0 mi Calm Calm - N/A   Overcast
8:56 AM 26.1 °F 18.4 °F 14.0 °F 60% 30.48 in 10.0 mi SE 6.9 mph - N/A   Overcast
9:56 AM 28.9 °F 22.8 °F 10.9 °F 47% 30.48 in 10.0 mi SSE 5.8 mph - N/A   Overcast
10:56 AM 32.0 °F 25.6 °F 10.9 °F 42% 30.50 in 10.0 mi South 6.9 mph - N/A   Overcast
11:56 AM 35.1 °F 30.1 °F 10.9 °F 37% 30.48 in 10.0 mi SE 5.8 mph - N/A   Overcast
12:56 PM 37.9 °F 33.5 °F 10.0 °F 32% 30.44 in 10.0 mi SE 5.8 mph - N/A   Overcast
1:56 PM 41.0 °F 38.0 °F 9.0 °F 27% 30.40 in 10.0 mi Variable 4.6 mph - N/A   Scattered Clouds
2:56 PM 42.1 °F 39.2 °F 9.0 °F 26% 30.37 in 10.0 mi Variable 4.6 mph - N/A   Partly Cloudy
3:56 PM 43.0 °F 41.3 °F 9.0 °F 25% 30.36 in 10.0 mi NE 3.5 mph - N/A   Partly Cloudy
4:56 PM 41.0 °F 36.4 °F 10.9 °F 29% 30.35 in 10.0 mi ESE 6.9 mph - N/A   Partly Cloudy
5:56 PM 36.0 °F 31.1 °F 12.0 °F 37% 30.34 in 10.0 mi SE 5.8 mph - N/A   Partly Cloudy
6:56 PM 30.9 °F 24.3 °F 12.0 °F 46% 30.35 in 10.0 mi SSE 6.9 mph - N/A   Partly Cloudy
7:56 PM 30.9 °F 23.5 °F 12.0 °F 46% 30.34 in 10.0 mi SSE 8.1 mph - N/A   Partly Cloudy
8:56 PM 28.9 °F 21.9 °F 10.9 °F 47% 30.33 in 10.0 mi SSE 6.9 mph - N/A   Clear
9:56 PM 30.0 °F 21.7 °F 10.0 °F 43% 30.33 in 10.0 mi South 9.2 mph - N/A   Clear
10:56 PM 28.0 °F 21.7 °F 10.0 °F 47% 30.32 in 10.0 mi South 5.8 mph - N/A   Clear
11:56 PM 27.0 °F 19.5 °F 10.9 °F 51% 30.30 in 10.0 mi South 6.9 mph - N/A   Clear